Tracking 25963 objects as of 12-Aug-2022
HD Live streaming from Space Station
objects crossing your sky now

STARLINK-4103

Track STARLINK-4103 now!
10-day predictions
STARLINK-4103 is classified as:


NORAD ID: 53141
Int'l Code: 2022-083K
Perigee: 378.0 km
Apogee: 379.8 km
Inclination: 53.2 °
Period: 92.0 minutes
Semi major axis: 6749 km
RCS: Unknown
Launch date: July 17, 2022
Source: United States (US)
Launch site: AIR FORCE EASTERN TEST RANGE (AFETR)
aabbcc
Your satellite tracking list
Your tracking list is empty




NASA's NSSDC Master Catalog

Two Line Element Set (TLE):
1 53141U 22083K   22224.58334491 -.01116094  00000-0 -12042-1 0  9992
2 53141  53.2175 278.3063 0001293  54.5065  53.4370 15.65520204  4745
Source of the keplerian elements: AFSPC